User: anonymous   Login
Location: Unspecified
(0.0000°N, 0.0000°E)
Time: 05:59:03
(UTC+00:00)
Language:

Australis-Oscar 5 - Orbit

View from above orbital plane
View from above orbital plane
View from above satellite
View from above satellite

Ground track
Ground track

The orbit data is extracted from the following two-line orbital elements,

1 04321U 70008B   21205.43539601 -.00000052  00000-0 -53829-4 0  9996
2 04321 101.5356 261.3524 0028071 154.2176 217.4730 12.52160311353568
Epoch (UTC): 24 July 2021 10:26:58
Eccentricity: 0.0028071
inclination: 101.5356°
perigee height: 1433 km
apogee height: 1477 km
right ascension of ascending node: 261.3524°
argument of perigee: 154.2176°
revolutions per day: 12.52160311
mean anomaly at epoch: 217.4730°
orbit number at epoch: 35356

The dashed part of the orbit path shows where the satellite is in the earth's shadow,  

DLR